TimeMDT,TemperatureF,Dew PointF,Humidity,Sea Level PressureIn,VisibilityMPH,Wind Direction,Wind SpeedMPH,Gust SpeedMPH,PrecipitationIn,Events,Conditions,WindDirDegrees,DateUTC
12:15 AM,55.4,48.2,77,30.28,10.0,ENE,13.8,19.6,N/A,,Overcast,70,2013-09-11 06:15:00
12:35 AM,55.4,48.2,77,30.29,10.0,ENE,9.2,-,N/A,,Overcast,60,2013-09-11 06:35:00
12:55 AM,55.4,48.2,77,30.29,10.0,ENE,17.3,23.0,N/A,,Overcast,70,2013-09-11 06:55:00
1:15 AM,55.4,46.4,72,30.29,10.0,ENE,17.3,-,N/A,,Overcast,60,2013-09-11 07:15:00
1:35 AM,53.6,48.2,82,30.29,10.0,ENE,16.1,21.9,N/A,,Overcast,60,2013-09-11 07:35:00
1:55 AM,53.6,48.2,82,30.28,10.0,ENE,18.4,-,N/A,,Overcast,60,2013-09-11 07:55:00
2:15 AM,53.6,48.2,82,30.28,10.0,ENE,19.6,24.2,N/A,,Overcast,60,2013-09-11 08:15:00
2:35 AM,53.6,48.2,82,30.27,10.0,ENE,17.3,-,N/A,,Overcast,60,2013-09-11 08:35:00
2:55 AM,53.6,46.4,77,30.27,10.0,ENE,15.0,-,N/A,,Overcast,60,2013-09-11 08:55:00
3:15 AM,53.6,46.4,77,30.28,10.0,East,13.8,-,N/A,,Overcast,80,2013-09-11 09:15:00
3:35 AM,53.6,46.4,77,30.27,10.0,ENE,18.4,23.0,N/A,,Overcast,70,2013-09-11 09:35:00
3:55 AM,55.4,46.4,72,30.27,10.0,ENE,20.7,27.6,N/A,,Overcast,70,2013-09-11 09:55:00
4:15 AM,55.4,46.4,72,30.28,10.0,East,17.3,25.3,N/A,,Overcast,80,2013-09-11 10:15:00
4:35 AM,53.6,46.4,77,30.28,10.0,ENE,23.0,27.6,N/A,,Overcast,70,2013-09-11 10:35:00
4:55 AM,53.6,44.6,72,30.28,10.0,ENE,19.6,-,N/A,,Overcast,70,2013-09-11 10:55:00
5:15 AM,53.6,44.6,72,30.28,10.0,ENE,18.4,-,N/A,,Overcast,70,2013-09-11 11:15:00
5:35 AM,53.6,44.6,72,30.28,10.0,ENE,18.4,-,N/A,,Overcast,70,2013-09-11 11:35:00
5:55 AM,53.6,44.6,72,30.28,10.0,ENE,19.6,-,N/A,,Overcast,70,2013-09-11 11:55:00
6:15 AM,53.6,44.6,72,30.29,10.0,ENE,18.4,21.9,N/A,,Overcast,70,2013-09-11 12:15:00
6:35 AM,53.6,44.6,72,30.29,10.0,East,17.3,24.2,N/A,,Overcast,80,2013-09-11 12:35:00
6:55 AM,53.6,44.6,72,30.29,10.0,ENE,17.3,-,N/A,,Overcast,70,2013-09-11 12:55:00
7:15 AM,53.6,44.6,72,30.29,10.0,East,19.6,25.3,N/A,,Overcast,80,2013-09-11 13:15:00
7:35 AM,53.6,44.6,72,30.30,10.0,ENE,16.1,23.0,N/A,,Overcast,70,2013-09-11 13:35:00
7:55 AM,53.6,44.6,72,30.30,10.0,East,20.7,25.3,N/A,,Overcast,80,2013-09-11 13:55:00
8:15 AM,55.4,44.6,67,30.30,10.0,East,18.4,-,N/A,,Overcast,80,2013-09-11 14:15:00
8:35 AM,55.4,42.8,63,30.30,10.0,East,17.3,25.3,N/A,,Mostly Cloudy,80,2013-09-11 14:35:00
8:55 AM,55.4,42.8,63,30.31,10.0,East,15.0,24.2,N/A,,Mostly Cloudy,80,2013-09-11 14:55:00
9:15 AM,55.4,44.6,67,30.31,10.0,East,18.4,26.5,N/A,,Overcast,80,2013-09-11 15:15:00
9:35 AM,53.6,46.4,77,30.32,10.0,East,17.3,24.2,N/A,Rain,Light Rain,80,2013-09-11 15:35:00
9:55 AM,55.4,46.4,72,30.32,10.0,East,16.1,24.2,N/A,,Overcast,80,2013-09-11 15:55:00
10:15 AM,55.4,46.4,72,30.32,10.0,East,21.9,27.6,N/A,,Overcast,90,2013-09-11 16:15:00
10:35 AM,53.6,48.2,82,30.32,10.0,East,18.4,27.6,N/A,,Overcast,90,2013-09-11 16:35:00
10:55 AM,53.6,50.0,88,30.34,5.0,East,15.0,26.5,N/A,Rain,Light Rain,80,2013-09-11 16:55:00
11:15 AM,53.6,51.8,94,30.34,4.0,East,18.4,26.5,0.01,Rain,Light Rain,100,2013-09-11 17:15:00
11:35 AM,51.8,50.0,94,30.34,4.0,East,18.4,25.3,0.01,Rain,Light Rain,80,2013-09-11 17:35:00
11:55 AM,51.8,50.0,94,30.34,7.0,ENE,21.9,25.3,0.03,Rain,Light Rain,70,2013-09-11 17:55:00
12:15 PM,51.8,50.0,94,30.34,10.0,East,21.9,28.8,0.01,Rain,Light Rain,80,2013-09-11 18:15:00
12:35 PM,51.8,51.8,100,30.34,10.0,East,18.4,23.0,0.03,Rain,Light Rain,80,2013-09-11 18:35:00
12:55 PM,53.6,53.6,100,30.34,10.0,ENE,19.6,26.5,0.04,Rain,Light Rain,70,2013-09-11 18:55:00
1:15 PM,57.2,53.6,88,30.34,10.0,ENE,18.4,23.0,N/A,,Overcast,60,2013-09-11 19:15:00
1:35 PM,57.2,51.8,82,30.34,10.0,ENE,17.3,25.3,N/A,,Overcast,70,2013-09-11 19:35:00
1:55 PM,59.0,51.8,77,30.33,10.0,ENE,19.6,-,N/A,,Overcast,70,2013-09-11 19:55:00
2:15 PM,60.8,51.8,72,30.32,10.0,ENE,23.0,26.5,N/A,,Overcast,70,2013-09-11 20:15:00
2:35 PM,59.0,51.8,77,30.34,10.0,ENE,17.3,-,N/A,,Overcast,70,2013-09-11 20:35:00
2:55 PM,62.6,51.8,68,30.33,10.0,ENE,18.4,25.3,N/A,,Overcast,60,2013-09-11 20:55:00
3:15 PM,60.8,51.8,72,30.33,10.0,ENE,19.6,26.5,N/A,,Overcast,70,2013-09-11 21:15:00
3:35 PM,59.0,51.8,77,30.34,10.0,ENE,23.0,26.5,N/A,,Overcast,70,2013-09-11 21:35:00
3:55 PM,59.0,51.8,77,30.33,10.0,ENE,20.7,25.3,N/A,,Overcast,70,2013-09-11 21:55:00
4:15 PM,59.0,51.8,77,30.32,10.0,ENE,24.2,29.9,N/A,,Overcast,60,2013-09-11 22:15:00
4:35 PM,55.4,51.8,88,30.32,10.0,NE,19.6,28.8,N/A,Rain,Rain,50,2013-09-11 22:35:00
4:55 PM,53.6,51.8,94,30.34,10.0,NE,18.4,23.0,N/A,,Overcast,40,2013-09-11 22:55:00
5:15 PM,55.4,51.8,88,30.34,10.0,NE,17.3,23.0,N/A,,Overcast,50,2013-09-11 23:15:00
5:35 PM,55.4,51.8,88,30.33,10.0,NE,17.3,25.3,N/A,,Overcast,50,2013-09-11 23:35:00
5:55 PM,55.4,51.8,88,30.34,10.0,NE,15.0,19.6,N/A,,Overcast,40,2013-09-11 23:55:00
6:15 PM,55.4,51.8,88,30.33,10.0,NE,13.8,-,N/A,Thunderstorm,Overcast,50,2013-09-12 00:15:00
6:35 PM,55.4,51.8,88,30.32,10.0,NE,13.8,20.7,N/A,,Overcast,50,2013-09-12 00:35:00
6:55 PM,53.6,51.8,94,30.32,10.0,NE,15.0,-,N/A,Rain,Light Rain,50,2013-09-12 00:55:00
7:15 PM,53.6,51.8,94,30.32,10.0,NE,15.0,-,N/A,Thunderstorm,Overcast,50,2013-09-12 01:15:00
7:35 PM,53.6,50.0,88,30.32,10.0,ENE,13.8,-,N/A,,Overcast,60,2013-09-12 01:35:00
7:55 PM,53.6,50.0,88,30.33,10.0,ENE,15.0,-,N/A,,Overcast,60,2013-09-12 01:55:00
8:15 PM,53.6,50.0,88,30.34,10.0,ENE,15.0,20.7,N/A,,Overcast,60,2013-09-12 02:15:00
8:35 PM,53.6,50.0,88,30.34,7.0,NE,20.7,24.2,0.01,Rain,Rain,50,2013-09-12 02:35:00
8:55 PM,51.8,50.0,94,30.34,5.0,NE,18.4,-,0.06,Rain,Light Rain,50,2013-09-12 02:55:00
9:15 PM,51.8,50.0,94,30.34,7.0,NE,20.7,24.2,0.02,Rain,Rain,50,2013-09-12 03:15:00
9:35 PM,51.8,50.0,94,30.34,10.0,ENE,20.7,26.5,0.05,Rain,Light Rain,60,2013-09-12 03:35:00
9:55 PM,51.8,51.8,100,30.35,7.0,NE,19.6,25.3,0.06,Rain,Light Rain,50,2013-09-12 03:55:00
10:15 PM,51.8,50.0,94,30.35,10.0,ENE,18.4,-,0.01,Rain,Light Rain,60,2013-09-12 04:15:00
10:35 PM,51.8,51.8,100,30.35,7.0,ENE,18.4,27.6,0.04,Rain,Rain,60,2013-09-12 04:35:00
10:55 PM,51.8,51.8,100,30.35,4.0,ENE,16.1,-,0.14,Rain,Rain,70,2013-09-12 04:55:00
11:15 PM,51.8,51.8,100,30.34,5.0,ENE,21.9,26.5,0.04,Rain,Light Rain,70,2013-09-12 05:15:00
11:35 PM,51.8,51.8,100,30.34,10.0,ENE,24.2,-,0.04,,Overcast,70,2013-09-12 05:35:00
11:55 PM,51.8,51.8,100,30.34,10.0,ENE,19.6,26.5,0.04,,Overcast,70,2013-09-12 05:55:00